THY5AX LTBJ-URSS

Flight info

Callsign THY5AX
Flight time N/A
Altitude 35000
Route KULA1T KULAR UT54 KFK UR32 HALIL UW77 BAG UT61 SIN UW96 ODIRA/K0845F350 G487 DIRUN DIRUN1G
Aircraft A321/M-SDE3FGHIRWY/LB1

Departure

Time N/A
Airport Adnan Menderes International Airport (LTBJ)

Arrival

Time 2026-05-05 20:42
Airport Sochi International Airport (URSS)
Time Latitude Longitude Altitude Speed Heading
2026-05-05 20:05 42.19284 35.52227 35030 ft 456 kts 62°
2026-05-05 20:05 42.22150 35.59782 35031 ft 455 kts 62°
2026-05-05 20:06 42.25025 35.67383 35029 ft 455 kts 63°
2026-05-05 20:06 42.27899 35.75003 35028 ft 456 kts 63°
2026-05-05 20:07 42.30770 35.82635 35034 ft 456 kts 63°
2026-05-05 20:07 42.33615 35.90220 35025 ft 457 kts 63°
2026-05-05 20:08 42.36491 35.97909 35019 ft 457 kts 63°
2026-05-05 20:08 42.39348 36.05566 35027 ft 457 kts 63°
2026-05-05 20:09 42.42197 36.13219 35030 ft 457 kts 63°
2026-05-05 20:09 42.45048 36.20898 35032 ft 457 kts 63°
2026-05-05 20:10 42.47883 36.28558 35035 ft 457 kts 63°
2026-05-05 20:10 42.50715 36.36232 35033 ft 457 kts 63°
2026-05-05 20:11 42.53540 36.43905 35029 ft 457 kts 63°
2026-05-05 20:11 42.56367 36.51606 35030 ft 456 kts 64°
2026-05-05 20:12 42.59179 36.59287 35026 ft 457 kts 64°
2026-05-05 20:12 42.61981 36.66963 35026 ft 457 kts 64°
2026-05-05 20:13 42.64808 36.74726 35025 ft 458 kts 64°
2026-05-05 20:13 42.67614 36.82455 35024 ft 459 kts 64°
2026-05-05 20:14 42.70409 36.90196 35021 ft 456 kts 65°
2026-05-05 20:14 42.71699 36.94117 34829 ft 452 kts 68°
2026-05-05 20:14 42.72912 36.98022 34610 ft 448 kts 68°
2026-05-05 20:14 42.74108 37.01922 34388 ft 445 kts 68°
2026-05-05 20:15 42.75288 37.05784 34170 ft 442 kts 68°
2026-05-05 20:15 42.76464 37.09629 33956 ft 440 kts 68°
2026-05-05 20:15 42.77630 37.13446 33736 ft 439 kts 68°
2026-05-05 20:15 42.78795 37.17260 33553 ft 439 kts 68°
2026-05-05 20:16 42.79961 37.21082 33381 ft 438 kts 68°
2026-05-05 20:16 42.81123 37.24897 33203 ft 437 kts 68°
2026-05-05 20:16 42.82284 37.28709 33027 ft 436 kts 68°
2026-05-05 20:16 42.83439 37.32509 32856 ft 435 kts 69°
2026-05-05 20:17 42.84590 37.36303 32698 ft 435 kts 69°
2026-05-05 20:17 42.85726 37.40054 32498 ft 434 kts 69°
2026-05-05 20:17 42.86879 37.43862 32133 ft 435 kts 69°
2026-05-05 20:17 42.88034 37.47686 31598 ft 437 kts 69°
2026-05-05 20:18 42.89185 37.51502 30946 ft 442 kts 69°
2026-05-05 20:18 42.90355 37.55387 29981 ft 446 kts 69°
2026-05-05 20:18 42.91511 37.59233 29071 ft 447 kts 69°
2026-05-05 20:18 42.92690 37.63165 28185 ft 447 kts 69°
2026-05-05 20:19 42.93859 37.67062 27315 ft 447 kts 69°
2026-05-05 20:19 42.95023 37.70952 26753 ft 440 kts 69°
2026-05-05 20:19 42.96175 37.74804 26214 ft 433 kts 69°
2026-05-05 20:19 42.97312 37.78616 25659 ft 427 kts 69°
2026-05-05 20:20 42.98429 37.82369 25103 ft 422 kts 70°
2026-05-05 20:20 42.99507 37.86014 24572 ft 416 kts 70°
2026-05-05 20:20 43.00603 37.89726 24021 ft 412 kts 70°
2026-05-05 20:20 43.01661 37.93312 23486 ft 407 kts 69°
2026-05-05 20:21 43.02713 37.96886 22952 ft 403 kts 69°
2026-05-05 20:21 43.03751 38.00417 22425 ft 400 kts 70°
2026-05-05 20:21 43.04782 38.03956 21896 ft 396 kts 70°
2026-05-05 20:21 43.05801 38.07468 21373 ft 393 kts 70°
2026-05-05 20:22 43.06810 38.10947 20852 ft 391 kts 70°
2026-05-05 20:22 43.07746 38.14405 20333 ft 388 kts 73°
2026-05-05 20:22 43.08432 38.17901 19826 ft 385 kts 79°
2026-05-05 20:22 43.08862 38.21534 19735 ft 392 kts 84°
2026-05-05 20:23 43.09114 38.25275 19759 ft 395 kts 86°
2026-05-05 20:23 43.09333 38.29038 19781 ft 396 kts 86°
2026-05-05 20:23 43.09545 38.32793 19801 ft 396 kts 86°
2026-05-05 20:23 43.09757 38.36520 19819 ft 396 kts 86°
2026-05-05 20:24 43.09970 38.40261 19834 ft 396 kts 86°
2026-05-05 20:24 43.10186 38.44050 19852 ft 396 kts 86°
2026-05-05 20:24 43.10400 38.47814 19873 ft 396 kts 86°
2026-05-05 20:24 43.10611 38.51519 19893 ft 395 kts 86°
2026-05-05 20:25 43.10823 38.55278 19910 ft 396 kts 86°
2026-05-05 20:25 43.11035 38.59043 19920 ft 395 kts 86°
2026-05-05 20:25 43.11316 38.64066 19893 ft 395 kts 86°
2026-05-05 20:25 43.11454 38.66541 19532 ft 397 kts 87°
2026-05-05 20:26 43.11663 38.70306 18869 ft 397 kts 87°
2026-05-05 20:26 43.11871 38.74082 18298 ft 394 kts 87°
2026-05-05 20:26 43.12073 38.77791 17757 ft 391 kts 87°
2026-05-05 20:26 43.12271 38.81440 17227 ft 388 kts 87°
2026-05-05 20:27 43.12470 38.85123 16682 ft 385 kts 87°
2026-05-05 20:27 43.12664 38.88750 16144 ft 382 kts 87°
2026-05-05 20:27 43.12856 38.92342 15613 ft 379 kts 87°
2026-05-05 20:27 43.13047 38.95929 15101 ft 375 kts 87°
2026-05-05 20:28 43.13234 38.99463 14592 ft 372 kts 87°
2026-05-05 20:28 43.13420 39.02983 14060 ft 369 kts 87°
2026-05-05 20:28 43.13601 39.06463 13542 ft 367 kts 87°
2026-05-05 20:28 43.13778 39.09898 13010 ft 364 kts 87°
2026-05-05 20:29 43.13956 39.13361 12472 ft 362 kts 87°
2026-05-05 20:29 43.14130 39.16747 11952 ft 360 kts 86°
2026-05-05 20:29 43.14303 39.20151 11431 ft 358 kts 86°
2026-05-05 20:29 43.14475 39.23542 10903 ft 356 kts 86°
2026-05-05 20:30 43.14675 39.26909 10362 ft 354 kts 82°
2026-05-05 20:30 43.15509 39.30003 9831 ft 353 kts 57°
2026-05-05 20:30 43.17233 39.32287 9709 ft 340 kts 37°
2026-05-05 20:30 43.19104 39.34072 9725 ft 313 kts 36°
2026-05-05 20:31 43.20809 39.35718 9713 ft 286 kts 37°
2026-05-05 20:31 43.22408 39.37294 9609 ft 282 kts 37°
2026-05-05 20:31 43.23985 39.38866 9319 ft 280 kts 37°
2026-05-05 20:31 43.25514 39.40464 8966 ft 278 kts 44°
2026-05-05 20:32 43.26751 39.42509 8601 ft 276 kts 59°
2026-05-05 20:32 43.27618 39.44825 8247 ft 274 kts 65°
2026-05-05 20:32 43.28418 39.47196 7889 ft 272 kts 65°
2026-05-05 20:32 43.29195 39.49519 7525 ft 270 kts 65°
2026-05-05 20:33 43.29990 39.51868 7168 ft 269 kts 64°
2026-05-05 20:33 43.30779 39.54181 6821 ft 269 kts 64°
2026-05-05 20:33 43.31582 39.56530 6458 ft 269 kts 64°
2026-05-05 20:33 43.32371 39.58845 6098 ft 269 kts 64°
2026-05-05 20:34 43.33151 39.61135 5867 ft 263 kts 64°
2026-05-05 20:34 43.33919 39.63385 5522 ft 256 kts 64°
2026-05-05 20:34 43.34663 39.65568 5133 ft 248 kts 65°
2026-05-05 20:34 43.35283 39.67735 4682 ft 243 kts 81°
2026-05-05 20:35 43.35066 39.69891 4247 ft 239 kts 118°
2026-05-05 20:35 43.33984 39.71573 3944 ft 229 kts 137°
2026-05-05 20:35 43.32896 39.73093 3682 ft 219 kts 130°
2026-05-05 20:35 43.31909 39.74680 3280 ft 217 kts 129°
2026-05-05 20:36 43.30947 39.76226 2991 ft 212 kts 130°
2026-05-05 20:36 43.29990 39.77737 2796 ft 203 kts 128°
2026-05-05 20:36 43.29296 39.79298 2654 ft 185 kts 112°
2026-05-05 20:36 43.28939 39.80608 2498 ft 178 kts 107°
2026-05-05 20:37 43.28936 39.80619 2496 ft 178 kts 107°
2026-05-05 20:37 43.28701 39.82248 2363 ft 170 kts 82°
2026-05-05 20:37 43.29216 39.83567 2293 ft 151 kts 43°
2026-05-05 20:38 43.30048 39.84409 2271 ft 149 kts 31°
2026-05-05 20:38 43.30960 39.85112 2245 ft 149 kts 27°
2026-05-05 20:38 43.31869 39.85773 2214 ft 146 kts 27°
2026-05-05 20:38 43.32760 39.86425 2185 ft 145 kts 28°
2026-05-05 20:39 43.33647 39.87086 2098 ft 145 kts 28°
2026-05-05 20:39 43.34534 39.87754 1915 ft 144 kts 28°
2026-05-05 20:39 43.35413 39.88418 1739 ft 144 kts 28°
2026-05-05 20:39 43.36296 39.89085 1559 ft 143 kts 27°
2026-05-05 20:40 43.37178 39.89751 1377 ft 143 kts 27°
2026-05-05 20:40 43.38042 39.90402 1198 ft 143 kts 27°
2026-05-05 20:40 43.38916 39.91061 1016 ft 142 kts 27°
2026-05-05 20:40 43.39772 39.91710 844 ft 142 kts 27°
2026-05-05 20:41 43.40642 39.92372 664 ft 141 kts 24°
2026-05-05 20:41 43.41507 39.93019 477 ft 141 kts 27°
2026-05-05 20:41 43.42361 39.93653 291 ft 141 kts 27°
2026-05-05 20:41 43.43225 39.94305 130 ft 140 kts 26°
2026-05-05 20:42 43.44063 39.94931 56 ft 127 kts 30°
2026-05-05 20:42 43.44686 39.95400 67 ft 77 kts 28°
2026-05-05 20:42 43.44922 39.95576 70 ft 5 kts 25°
2026-05-05 20:42 43.44947 39.95580 70 ft 3 kts 343°
2026-05-05 20:43 43.44969 39.95568 70 ft 3 kts 338°
2026-05-05 20:43 43.44996 39.95552 71 ft 4 kts 335°
2026-05-05 20:43 43.45027 39.95533 71 ft 5 kts 336°
2026-05-05 20:43 43.45053 39.95512 71 ft 3 kts 313°
2026-05-05 20:44 43.45059 39.95476 72 ft 4 kts 265°
2026-05-05 20:44 43.45049 39.95432 72 ft 5 kts 245°
2026-05-05 20:44 43.45027 39.95369 71 ft 9 kts 245°
2026-05-05 20:44 43.44993 39.95271 67 ft 13 kts 245°
2026-05-05 20:45 43.44938 39.95119 58 ft 8 kts 241°
2026-05-05 20:45 43.44912 39.95044 54 ft 10 kts 245°
2026-05-05 20:45 43.44878 39.94942 53 ft 12 kts 245°
2026-05-05 20:46 43.44864 39.94904 53 ft 4 kts 244°
2026-05-05 20:46 43.44832 39.94808 52 ft 13 kts 245°
2026-05-05 20:46 43.44789 39.94685 50 ft 15 kts 246°
2026-05-05 20:46 43.44762 39.94606 50 ft 5 kts 244°
2026-05-05 20:47 43.44756 39.94579 51 ft 2 kts 272°
2026-05-05 20:47 43.44763 39.94559 51 ft 2 kts 312°
2026-05-05 20:47 43.44781 39.94543 51 ft 3 kts 333°
2026-05-05 20:47 43.44807 39.94526 52 ft 4 kts 334°
2026-05-05 20:48 43.44833 39.94509 52 ft 4 kts 334°
2026-05-05 20:48 43.44844 39.94502 53 ft 0 kts 334°
2026-05-05 20:48 43.44849 39.94498 53 ft 1 kts 334°
2026-05-05 20:48 43.44851 39.94497 53 ft 0 kts 333°
2026-05-05 20:49 43.44852 39.94497 53 ft 1 kts 333°
2026-05-05 20:49 43.44854 39.94495 53 ft 0 kts 333°